Home   Weather   Worcester   Past weeks

Flag for USA Past Weather in Worcester, Massachusetts, USA — Yesterday and Last 2 Weeks

Now
52 °F

Clear.


Feels Like: 47 °F
Forecast: 43 / 57 °F
Wind: 14 mph from West

Location: Worcester Regional Airport

Current Time: Feb 24, 2017 at 1:40:03 am

Latest Report: Feb 24, 2017 at 12:54 am


Visibility: 10 mi

Pressure: 29.89 "Hg

Humidity: 86%

Dew Point: 48 °F

Location of WorcesterLocation

Past Weather in Worcester — Graph

°F

Worcester Temperature Yesterday

Maximum temperature yesterday: 63 °F (at 1:54 pm)
Minimum temperature yesterday: 41 °F (at 4:54 am)
Average temperature yesterday: 51 °F

High & Low Weather Summary for the Past Weeks

 TemperatureHumidityPressure
High63 °F (Feb 23, 1:54 pm)96% (Feb 15, 4:05 am)30.38 "Hg (Feb 15, 4:05 am)
Low4 °F (Feb 10, 6:23 am)23% (Feb 20, 2:54 pm)29.22 "Hg (Feb 15, 9:29 pm)
Average29 °F68%29.78 "Hg
* Reported Feb 8 11:54 pm — Feb 23 11:54 pm, Worcester, Weather by CustomWeather, © 2017

Note: Actual official high and low records may vary slightly from our data, if they occured in-between our weather recording intervals... More about our weather records

Advertising

Worcester Weather History for the Previous 24 Hours

Scroll right to see more
 ConditionsComfort  
Time TempWeatherWind HumidityBarometerVisibility
11:54 pm
Thu, Feb 23
51 °FClear.13 mph86%29.89 "Hg10 mi
10:54 pm51 °FClear.12 mph86%29.87 "Hg10 mi
9:54 pm50 °FClear.13 mph86%29.87 "Hg7 mi
8:54 pm50 °FClear.15 mph86%29.86 "Hg8 mi
7:54 pm50 °FClear.15 mph86%29.85 "Hg10 mi
6:54 pm52 °FClear.13 mph80%29.83 "Hg10 mi
5:54 pm55 °FClear.15 mph72%29.80 "Hg10 mi
4:54 pm59 °FSunny.16 mph62%29.77 "Hg10 mi
3:54 pm62 °FSunny.15 mph54%29.75 "Hg10 mi
2:54 pm63 °FSunny.18 mph48%29.75 "Hg10 mi
1:54 pm63 °FSunny.16 mph47%29.77 "Hg10 mi
12:54 pm62 °FSunny.16 mph46%29.79 "Hg10 mi
11:54 am61 °FSunny.16 mph46%29.82 "Hg10 mi
10:54 am58 °FSunny.17 mph51%29.84 "Hg10 mi
9:54 am55 °FSunny.14 mph57%29.86 "Hg10 mi
8:54 am49 °FSunny.12 mph66%29.87 "Hg10 mi
7:54 am45 °FSunny.9 mph71%29.87 "Hg10 mi
6:54 am43 °FSunny.10 mph74%29.86 "Hg10 mi
5:54 am43 °FOvercast.10 mph74%29.86 "Hg10 mi
4:54 am41 °FOvercast.8 mph76%29.85 "Hg10 mi
3:54 am42 °FOvercast.10 mph76%29.85 "Hg10 mi
2:54 am43 °FOvercast.10 mph74%29.86 "Hg10 mi
1:54 am42 °FPassing clouds.9 mph73%29.87 "Hg10 mi
Weather by CustomWeather, © 2017

See weather overviewHow to use our weather pages